TimeEDT,TemperatureF,Dew PointF,Humidity,Sea Level PressureIn,VisibilityMPH,Wind Direction,Wind SpeedMPH,Gust SpeedMPH,PrecipitationIn,Events,Conditions,WindDirDegrees,DateUTC
12:56 AM,37.9,25.0,60,30.07,10.0,SSW,11.5,-,N/A,,Clear,210,2013-04-05 04:56:00
1:56 AM,37.0,27.0,67,30.04,10.0,SSW,11.5,17.3,N/A,,Clear,210,2013-04-05 05:56:00
2:56 AM,37.0,27.0,67,30.02,10.0,SSW,10.4,-,N/A,,Clear,200,2013-04-05 06:56:00
3:56 AM,36.0,26.1,67,30.00,10.0,SSW,8.1,-,N/A,,Clear,210,2013-04-05 07:56:00
4:56 AM,36.0,26.1,67,29.99,10.0,SSW,5.8,-,N/A,,Clear,210,2013-04-05 08:56:00
5:56 AM,35.1,26.1,70,29.96,10.0,SW,4.6,-,N/A,,Clear,220,2013-04-05 09:56:00
6:56 AM,37.9,26.1,62,29.97,10.0,Variable,6.9,-,N/A,,Overcast,0,2013-04-05 10:56:00
7:56 AM,39.0,27.0,62,29.96,10.0,WSW,6.9,-,N/A,,Mostly Cloudy,240,2013-04-05 11:56:00
8:56 AM,42.1,27.0,55,29.93,10.0,SW,8.1,-,N/A,,Partly Cloudy,220,2013-04-05 12:56:00
9:56 AM,44.1,25.0,47,29.91,10.0,WSW,10.4,-,N/A,,Mostly Cloudy,240,2013-04-05 13:56:00
10:56 AM,46.9,24.1,41,29.88,10.0,WSW,6.9,-,N/A,,Overcast,240,2013-04-05 14:56:00
11:56 AM,46.9,26.1,44,29.86,10.0,SSW,9.2,-,N/A,,Overcast,210,2013-04-05 15:56:00
12:56 PM,51.1,25.0,36,29.80,10.0,SW,4.6,-,N/A,,Mostly Cloudy,230,2013-04-05 16:56:00
1:56 PM,54.0,21.9,29,29.75,10.0,SSW,8.1,-,N/A,,Clear,210,2013-04-05 17:56:00
2:56 PM,55.9,19.0,24,29.69,10.0,Calm,Calm,-,N/A,,Clear,0,2013-04-05 18:56:00
3:56 PM,60.1,15.1,17,29.67,10.0,Variable,6.9,-,N/A,,Scattered Clouds,0,2013-04-05 19:56:00
4:56 PM,59.0,18.0,20,29.67,10.0,WNW,16.1,25.3,N/A,,Clear,290,2013-04-05 20:56:00
5:56 PM,55.9,18.0,23,29.70,10.0,WNW,20.7,27.6,N/A,,Clear,290,2013-04-05 21:56:00
6:56 PM,52.0,17.1,25,29.74,10.0,NW,15.0,20.7,N/A,,Clear,310,2013-04-05 22:56:00
7:56 PM,50.0,18.0,28,29.77,10.0,NNW,12.7,24.2,N/A,,Mostly Cloudy,330,2013-04-05 23:56:00
8:56 PM,46.0,21.9,39,29.83,10.0,NW,19.6,28.8,N/A,,Mostly Cloudy,320,2013-04-06 00:56:00
9:56 PM,43.0,24.1,47,29.87,10.0,NNW,15.0,24.2,N/A,,Clear,340,2013-04-06 01:56:00
10:56 PM,39.9,24.1,53,29.89,10.0,NNW,9.2,19.6,N/A,,Clear,330,2013-04-06 02:56:00
11:56 PM,37.9,24.1,57,29.92,10.0,NW,10.4,-,N/A,,Clear,320,2013-04-06 03:56:00